Patrick AFB, FL

2:32 PM EST on February 21, 2017 (GMT -0500)
Patrick Air Force Base

Weather History for KCOF - October, 2012

Change the Weather History Date:

Saturday, October 13, 2012

  Actual Average Record
Temperature  
Mean Temperature 80 °F -  
Max Temperature 84 °F 80 °F 87 °F (2002)
Min Temperature 77 °F 71 °F 69 °F (2006)
Cooling Degree Days 16    
Growing Degree Days 30 (Base 50)    
Moisture  
Dew Point 67 °F    
Average Humidity 63    
Maximum Humidity 74    
Minimum Humidity 55    
Precipitation  
Precipitation 0.00 in - - ()
Sea Level Pressure  
Sea Level Pressure 30.13 in    
Wind  
Wind Speed 20 mph (ENE)    
Max Wind Speed 24 mph    
Max Gust Speed 30 mph    
Visibility 10 miles    
Events      
Averages and records for this station are not official NWS values.
T = Trace of Precipitation, MM = Missing Value Source: NWS Daily Summary

Daily Weather History Graph

Daily Weather History Graph

Search for Another Location

Airport or City:

Trip Planner

Search our weather history database for the weather conditions in past years. The results will help you decide how hot, cold, wet, or windy it might be!

Date:

Astronomy

Oct. 13, 2012 Rise Set
Actual Time 7:22 AM EDT 6:54 PM EDT
Civil Twilight 6:58 AM EDT 7:18 PM EDT
Nautical Twilight 6:31 AM EDT 7:45 PM EDT
Astronomical Twilight 6:03 AM EDT 8:12 PM EDT
Moon 5:18 AM EDT (10/13) 5:32 PM EDT (10/13)
Length of Visible Light 12h 19m
Length of Day
11h 32m
Waning Crescent, 5% of the Moon is Illuminated
Oct 13
Waning Crescent
Oct 15
New
Oct 21
First Quarter
Oct 29
Full
Nov 6
Last Quarter

Hourly Weather History & Observations

Time (EDT) Temp. Heat Index Dew Point Humidity Pressure Visibility Wind Dir Wind Speed Gust Speed Precip Events Conditions
12:55 AM 77.4 °F - 66.0 °F 68% 30.15 in 10.0 mi NNE 19.6 mph 25.3 mph N/A   Scattered Clouds
1:55 AM 77.2 °F - 65.3 °F 67% 30.14 in 10.0 mi NNE 20.7 mph - N/A   Clear
2:55 AM 77.2 °F - 64.4 °F 65% 30.12 in 10.0 mi NNE 19.6 mph - N/A   Partly Cloudy
3:55 AM 77.0 °F - 65.3 °F 67% 30.11 in 10.0 mi NE 18.4 mph - N/A   Partly Cloudy
4:55 AM 77.0 °F - 64.2 °F 65% 30.11 in 10.0 mi NE 21.9 mph - N/A   Partly Cloudy
5:55 AM 77.2 °F - 64.4 °F 65% 30.12 in 10.0 mi NE 20.7 mph - N/A   Clear
6:55 AM 77.7 °F - 63.5 °F 61% 30.14 in 10.0 mi NE 20.7 mph 26.5 mph N/A   Mostly Cloudy
7:55 AM 78.1 °F - 63.3 °F 60% 30.15 in 10.0 mi ENE 20.7 mph 25.3 mph N/A   Partly Cloudy
8:55 AM 79.7 °F - 63.7 °F 58% 30.17 in 10.0 mi ENE 16.1 mph - N/A   Clear
9:55 AM 81.7 °F 83.5 °F 65.1 °F 57% 30.17 in 10.0 mi ENE 18.4 mph 25.3 mph N/A   Clear
10:55 AM 82.4 °F 84.4 °F 65.8 °F 57% 30.18 in 10.0 mi ENE 19.6 mph 24.2 mph N/A   Clear
11:55 AM 82.9 °F 85.0 °F 65.8 °F 56% 30.18 in 10.0 mi ENE 20.7 mph 25.3 mph N/A   Clear
12:55 PM 84.0 °F 86.3 °F 66.4 °F 55% 30.17 in 10.0 mi ENE 18.4 mph - N/A   Clear
1:55 PM 84.2 °F 86.8 °F 67.1 °F 56% 30.15 in 10.0 mi ENE 17.3 mph - N/A   Clear
2:55 PM 84.6 °F 87.4 °F 67.5 °F 56% 30.13 in 10.0 mi ENE 17.3 mph - N/A   Clear
3:55 PM 82.8 °F 85.8 °F 68.2 °F 61% 30.12 in 10.0 mi NE 18.4 mph 25.3 mph N/A   Partly Cloudy
4:55 PM 82.2 °F 85.1 °F 68.2 °F 62% 30.10 in 10.0 mi NE 21.9 mph 27.6 mph N/A   Clear
5:55 PM 81.0 °F 84.1 °F 68.9 °F 67% 30.11 in 10.0 mi NE 19.6 mph - N/A   Partly Cloudy
6:55 PM 80.1 °F 82.8 °F 68.5 °F 68% 30.11 in 10.0 mi ENE 19.6 mph 27.6 mph N/A   Mostly Cloudy
7:39 PM 80.6 °F 83.2 °F 68.0 °F 65% 30.11 in 10.0 mi ENE 19.6 mph 25.3 mph N/A   Light Drizzle
7:49 PM 80.6 °F 83.9 °F 69.8 °F 70% 30.12 in 10.0 mi ENE 18.4 mph 25.3 mph N/A   Mostly Cloudy
7:55 PM 80.1 °F 82.9 °F 69.1 °F 69% 30.12 in 10.0 mi ENE 19.6 mph - 0.00 in   Light Drizzle
8:06 PM 80.6 °F 83.2 °F 68.0 °F 65% 30.11 in 10.0 mi ENE 20.7 mph - N/A   Mostly Cloudy
8:23 PM 78.8 °F - 69.8 °F 74% 30.12 in 10.0 mi ENE 21.9 mph 27.6 mph N/A   Light Drizzle
8:35 PM 80.6 °F 83.2 °F 68.0 °F 65% 30.12 in 10.0 mi ENE 19.6 mph - N/A   Scattered Clouds
8:55 PM 80.2 °F 82.7 °F 67.6 °F 65% 30.13 in 10.0 mi ENE 21.9 mph 29.9 mph 0.00 in   Scattered Clouds
9:55 PM 79.9 °F - 66.7 °F 64% 30.14 in 10.0 mi East 24.2 mph 28.8 mph N/A   Clear
10:55 PM 79.5 °F - 67.1 °F 66% 30.14 in 10.0 mi East 24.2 mph 29.9 mph N/A   Clear
11:55 PM 79.2 °F - 65.7 °F 63% 30.13 in 10.0 mi East 21.9 mph - N/A   Clear